Location: Pompeys Pillar
(45.9913°N, 107.9528°W)
Time: 05:39:22
(UTC+00:00)

Tiros 1 - Pass Details

Date: 05 June 2022
Orbit: 629 x 663 km, 48.4° (Epoch: 30 June)

Event Time Altitude Azimuth Distance (km) Brightness Sun altitude
Rises 04:46:23 0° 240° (WSW) 2,909 10.6 -14.1°
Reaches altitude 10° 04:48:42 10° 238° (WSW) 2,002 9.7 -14.3°
Maximum altitude 04:53:16 69° 156° (SSE) 674 7.0 -14.8°
Drops below altitude 10° 04:57:52 10° 73° (ENE) 2,010 9.5 -15.2°
Sets 05:00:12 0° 71° (ENE) 2,922 10.4 -15.4°
